Location: Oberwangen
(47.4286°N, 8.9679°E)
Time: 07:37:52
(UTC+00:00)

Cosmos 1607 - Pass Details

Date: 21 October 2021
Orbit: 918 x 984 km, 65.0° (Epoch: 30 November)

Event Time Altitude Azimuth Distance (km) Brightness Sun altitude
Rises 17:22:23 0° 319° (NW) 3,657 7.6 -10.3°
Reaches altitude 10° 17:25:03 10° 314° (NW) 2,697 6.9 -10.8°
Maximum altitude 17:31:01 47° 243° (WSW) 1,234 5.1 -11.8°
Drops below altitude 10° 17:36:52 10° 171° (S) 2,637 6.2 -12.8°
Sets 17:39:27 0° 166° (SSE) 3,568 6.8 -13.2°
